Flag Weather past 2 weeks in Salvador, Bahia, Brazil

Now
79 °F

Scattered clouds.


Feels Like: 81 °F
Forecast: 77 / 80 °F
Wind: 9 mph from East

Location: Salvador Aeroporto

Current Time: Nov 1, 2014 at 8:03:41 AM

Latest Report: Nov 1, 2014 at 7:00 AM


Visibility: N/A

Pressure: 30.04 "Hg

Humidity: 74%

Dew point: 70 °F

Location of SalvadorLocation

Historic Weather in Salvador — Graph

°F

Salvador temperature yesterday

Maximum temperature yesterday: 84 °F (at 10:00 AM)
Minimum temperature yesterday: 75 °F (at 10:00 PM)
Average temperature yesterday: 79 °F

Past Weeks' High & Low Weather Summary

 TemperatureHumidityPressure
High84 °F (Oct 21, 12:00 PM)83% (Oct 19, 6:00 AM)30.07 "Hg (Oct 19, 6:00 AM)
Low73 °F (Oct 19, 6:00 AM)54% (Oct 23, 2:00 PM)29.86 "Hg (Oct 20, 2:00 PM)
Average79 °F71%29.97 "Hg
* Reported Oct 17 7:00 AM — Nov 1 7:00 AM, Salvador, Weather by CustomWeather, © 2014

Note: Actual official high and low records may vary slightly from our data, if they occured in-between our weather recording intervals... More about our weather records

Advertising

Salvador weather history for previous 24 hours

 ConditionsComfort  
Time TempWeatherWind HumidityBarometerVisibility
7:00 AM
Nov 1
79 °FScattered clouds.9 mph74%30.04 "HgN/A
6:00 AM77 °FBroken clouds.8 mph74%30.01 "HgN/A
5:00 AM77 °FPassing clouds.8 mph74%30.01 "HgN/A
4:00 AM77 °FPassing clouds.10 mph79%29.98 "HgN/A
3:00 AM77 °FPassing clouds.9 mph74%29.98 "HgN/A
2:00 AM77 °FPassing clouds.8 mph79%29.98 "HgN/A
1:00 AM75 °FPassing clouds.7 mph83%29.98 "HgN/A
12:00 AM77 °FPassing clouds.7 mph79%30.01 "HgN/A
11:00 PM
Oct 31
77 °FPassing clouds.10 mph79%30.01 "HgN/A
10:00 PM75 °FPassing clouds.10 mph78%30.04 "HgN/A
9:00 PM77 °FPassing clouds.12 mph74%30.01 "HgN/A
8:00 PM77 °FPassing clouds.21 mph74%30.01 "HgN/A
7:00 PM79 °FPassing clouds.13 mph70%29.98 "HgN/A
6:00 PM79 °FScattered clouds.12 mph70%29.98 "HgN/A
5:00 PM81 °FScattered clouds.12 mph66%29.98 "HgN/A
4:00 PM81 °FScattered clouds.12 mph70%29.98 "HgN/A
3:00 PM84 °FScattered clouds.14 mph62%29.98 "HgN/A
2:00 PM84 °FScattered clouds.17 mph58%29.98 "HgN/A
1:00 PM82 °FScattered clouds.12 mph70%29.98 "HgN/A
12:00 PM84 °FScattered clouds.14 mph62%30.01 "HgN/A
11:00 AM82 °FScattered clouds.14 mph66%30.01 "HgN/A
10:00 AM84 °FScattered clouds.12 mph62%30.04 "HgN/A
9:00 AM81 °FScattered clouds.14 mph70%30.04 "HgN/A
8:00 AM82 °FScattered clouds.13 mph66%30.01 "HgN/A
Weather by CustomWeather, © 2014

See weather overviewHow to use our weather pages